TimeCDT,TemperatureF,Dew PointF,Humidity,Sea Level PressureIn,VisibilityMPH,Wind Direction,Wind SpeedMPH,Gust SpeedMPH,PrecipitationIn,Events,Conditions,WindDirDegrees,DateUTC
12:12 AM,26.6,23.0,86,30.49,10.0,NNE,4.6,-,N/A,,Clear,30,2013-05-03 05:12:00
12:52 AM,23.0,21.2,93,30.47,10.0,North,5.8,-,N/A,,Clear,10,2013-05-03 05:52:00
1:12 AM,23.0,21.2,93,30.46,10.0,North,4.6,-,N/A,,Clear,10,2013-05-03 06:12:00
1:33 AM,23.0,21.2,93,30.46,10.0,North,4.6,-,N/A,,Clear,10,2013-05-03 06:33:00
1:52 AM,21.2,19.4,93,30.45,10.0,North,8.1,-,N/A,,Clear,360,2013-05-03 06:52:00
2:13 AM,21.2,19.4,93,30.45,10.0,North,6.9,-,N/A,,Clear,10,2013-05-03 07:13:00
2:33 AM,21.2,19.4,93,30.45,10.0,North,4.6,-,N/A,,Clear,10,2013-05-03 07:33:00
2:52 AM,21.2,19.4,93,30.44,10.0,North,6.9,-,N/A,,Clear,10,2013-05-03 07:52:00
3:13 AM,21.2,19.4,93,30.44,10.0,North,6.9,-,N/A,,Clear,10,2013-05-03 08:13:00
3:33 AM,23.0,19.4,86,30.43,10.0,North,5.8,-,N/A,,Clear,10,2013-05-03 08:33:00
3:52 AM,21.2,19.4,93,30.42,10.0,NNE,3.5,-,N/A,,Clear,20,2013-05-03 08:52:00
4:13 AM,19.4,19.4,100,30.42,10.0,North,4.6,-,N/A,,Clear,10,2013-05-03 09:13:00
4:33 AM,19.4,19.4,100,30.42,10.0,NNE,4.6,-,N/A,,Clear,20,2013-05-03 09:33:00
4:52 AM,21.2,19.4,93,30.42,10.0,NNE,3.5,-,N/A,,Clear,20,2013-05-03 09:52:00
5:13 AM,19.4,19.4,100,30.42,10.0,NNE,4.6,-,N/A,,Clear,20,2013-05-03 10:13:00
5:33 AM,21.2,19.4,93,30.41,10.0,NNE,4.6,-,N/A,,Clear,20,2013-05-03 10:33:00
5:52 AM,21.2,19.4,93,30.40,10.0,NNE,5.8,-,N/A,,Clear,20,2013-05-03 10:52:00
6:13 AM,19.4,17.6,93,30.39,10.0,North,5.8,-,N/A,,Clear,10,2013-05-03 11:13:00
6:33 AM,19.4,19.4,100,30.39,10.0,NNE,4.6,-,N/A,,Clear,20,2013-05-03 11:33:00
6:52 AM,23.0,21.2,93,30.39,10.0,NNE,6.9,-,N/A,,Clear,20,2013-05-03 11:52:00
7:13 AM,26.6,23.0,86,30.39,10.0,NNE,6.9,-,N/A,,Clear,20,2013-05-03 12:13:00
7:32 AM,26.6,24.8,93,30.39,10.0,NNE,9.2,-,N/A,,Clear,30,2013-05-03 12:32:00
7:53 AM,28.4,24.8,86,30.39,10.0,NNE,10.4,-,N/A,,Clear,30,2013-05-03 12:53:00
8:13 AM,30.2,24.8,80,30.38,10.0,NNE,10.4,16.1,N/A,,Clear,30,2013-05-03 13:13:00
8:32 AM,32.0,24.8,75,30.38,10.0,NE,10.4,-,N/A,,Clear,40,2013-05-03 13:32:00
8:53 AM,33.8,24.8,70,30.37,10.0,NE,16.1,-,N/A,,Clear,40,2013-05-03 13:53:00
9:13 AM,35.6,24.8,65,30.36,10.0,NE,13.8,18.4,N/A,,Clear,50,2013-05-03 14:13:00
9:53 AM,37.4,24.8,60,30.35,10.0,NE,12.7,20.7,N/A,,Clear,40,2013-05-03 14:53:00
10:12 AM,39.2,23.0,52,30.35,10.0,NE,15.0,-,N/A,,Clear,40,2013-05-03 15:12:00
10:32 AM,39.2,23.0,52,30.34,10.0,NNE,12.7,17.3,N/A,,Clear,30,2013-05-03 15:32:00
10:53 AM,39.2,24.8,56,30.34,10.0,ENE,11.5,16.1,N/A,,Clear,60,2013-05-03 15:53:00
11:12 AM,42.8,24.8,49,30.32,10.0,NNE,17.3,-,N/A,,Clear,30,2013-05-03 16:12:00
11:32 AM,44.6,24.8,46,30.32,10.0,NE,12.7,20.7,N/A,,Clear,40,2013-05-03 16:32:00
11:53 AM,42.8,24.8,49,30.31,10.0,NNE,12.7,18.4,N/A,,Clear,20,2013-05-03 16:53:00
12:32 PM,44.6,23.0,43,30.28,10.0,NE,15.0,21.9,N/A,,Clear,40,2013-05-03 17:32:00
12:53 PM,46.4,23.0,40,30.26,10.0,NE,15.0,23.0,N/A,,Clear,40,2013-05-03 17:53:00
1:12 PM,46.4,23.0,40,30.26,10.0,NE,15.0,25.3,N/A,,Clear,40,2013-05-03 18:12:00
1:33 PM,48.2,21.2,34,30.25,10.0,ENE,13.8,23.0,N/A,,Scattered Clouds,60,2013-05-03 18:33:00
1:53 PM,48.2,21.2,34,30.24,10.0,NE,16.1,23.0,N/A,,Clear,50,2013-05-03 18:53:00
2:12 PM,48.2,21.2,34,30.23,10.0,NE,13.8,19.6,N/A,,Clear,40,2013-05-03 19:12:00
2:33 PM,48.2,21.2,34,30.23,10.0,NE,16.1,25.3,N/A,,Scattered Clouds,50,2013-05-03 19:33:00
2:53 PM,48.2,21.2,34,30.23,10.0,ENE,15.0,18.4,N/A,,Scattered Clouds,60,2013-05-03 19:53:00
3:12 PM,48.2,21.2,34,30.22,10.0,ENE,15.0,18.4,N/A,,Scattered Clouds,60,2013-05-03 20:12:00
3:33 PM,48.2,21.2,34,30.21,10.0,ENE,12.7,18.4,N/A,,Mostly Cloudy,60,2013-05-03 20:33:00
3:52 PM,48.2,21.2,34,30.21,10.0,ENE,11.5,23.0,N/A,,Mostly Cloudy,70,2013-05-03 20:52:00
4:12 PM,48.2,21.2,34,30.21,10.0,ENE,9.2,20.7,N/A,,Scattered Clouds,70,2013-05-03 21:12:00
4:33 PM,46.4,21.2,37,30.20,10.0,NE,16.1,19.6,N/A,,Scattered Clouds,50,2013-05-03 21:33:00
4:52 PM,46.4,21.2,37,30.20,10.0,ENE,11.5,-,N/A,,Scattered Clouds,70,2013-05-03 21:52:00
5:13 PM,46.4,21.2,37,30.20,10.0,ENE,13.8,21.9,N/A,,Scattered Clouds,60,2013-05-03 22:13:00
5:33 PM,46.4,21.2,37,30.20,10.0,ENE,13.8,19.6,N/A,,Scattered Clouds,70,2013-05-03 22:33:00
5:52 PM,46.4,21.2,37,30.20,10.0,ENE,9.2,17.3,N/A,,Mostly Cloudy,70,2013-05-03 22:52:00
6:13 PM,44.6,23.0,43,30.19,10.0,East,11.5,-,N/A,,Scattered Clouds,80,2013-05-03 23:13:00
6:33 PM,44.6,23.0,43,30.20,10.0,East,9.2,-,N/A,,Scattered Clouds,80,2013-05-03 23:33:00
6:52 PM,44.6,23.0,43,30.20,10.0,ENE,12.7,18.4,N/A,,Scattered Clouds,60,2013-05-03 23:52:00
7:13 PM,44.6,23.0,43,30.20,10.0,ENE,9.2,17.3,N/A,,Mostly Cloudy,60,2013-05-04 00:13:00
7:32 PM,42.8,21.2,42,30.21,10.0,ENE,11.5,18.4,N/A,,Overcast,70,2013-05-04 00:32:00
7:52 PM,42.8,21.2,42,30.21,10.0,ENE,10.4,-,N/A,,Overcast,70,2013-05-04 00:52:00
8:13 PM,42.8,23.0,46,30.20,10.0,ENE,10.4,-,N/A,,Overcast,60,2013-05-04 01:13:00
8:32 PM,42.8,23.0,46,30.20,10.0,NE,6.9,-,N/A,,Overcast,50,2013-05-04 01:32:00
8:53 PM,42.8,23.0,46,30.19,10.0,ENE,9.2,-,N/A,,Overcast,60,2013-05-04 01:53:00
9:13 PM,42.8,23.0,46,30.19,10.0,ENE,8.1,-,N/A,,Overcast,60,2013-05-04 02:13:00
9:32 PM,42.8,23.0,46,30.20,10.0,NE,8.1,-,N/A,,Overcast,50,2013-05-04 02:32:00
9:53 PM,42.8,23.0,46,30.20,10.0,ENE,6.9,-,N/A,,Overcast,60,2013-05-04 02:53:00
10:12 PM,42.8,23.0,46,30.21,10.0,ENE,5.8,-,N/A,,Overcast,70,2013-05-04 03:12:00
10:53 PM,42.8,23.0,46,30.21,10.0,ENE,4.6,-,N/A,,Overcast,70,2013-05-04 03:53:00
11:12 PM,42.8,24.8,49,30.20,10.0,ENE,6.9,-,N/A,,Overcast,70,2013-05-04 04:12:00
11:32 PM,42.8,24.8,49,30.21,10.0,ENE,8.1,-,N/A,,Overcast,60,2013-05-04 04:32:00
11:53 PM,41.0,26.6,57,30.20,10.0,ENE,9.2,-,N/A,,Overcast,70,2013-05-04 04:53:00